Lewistown, MT

2:55 PM MDT on September 29, 2016 (GMT -0600)
Lewistown Municipal

Weather History for KLWT - June, 2013

Change the Weather History Date:

Saturday, June 22, 2013

  Actual Average Record
Temperature  
Mean Temperature 49 °F 60 °F  
Max Temperature 60 °F 73 °F 98 °F (1919)
Min Temperature 38 °F 47 °F 33 °F (1942)
Degree Days  
Heating Degree Days 16 6  
Month to date heating degree days 207 185  
Since 1 June heating degree days 207 185  
Since 1 July heating degree days 8056 8159  
Cooling Degree Days 0 1  
Month to date cooling degree days 4 8  
Year to date cooling degree days 7 10  
Since 1 June cooling degree days 4 8  
Moisture  
Dew Point 44 °F    
Average Humidity 81    
Maximum Humidity 100    
Minimum Humidity 62    
Precipitation  
Precipitation 0.03 in 0.10 in 1.71 in (1923)
Month to date precipitation 4.53 2.40  
Year to date precipitation 14.16 8.66  
Snow  
Snow 0.00 in - - ()
Snow Depth 0.00 in    
Sea Level Pressure  
Sea Level Pressure 29.99 in    
Wind  
Wind Speed 5 mph (SSW)    
Max Wind Speed 10 mph    
Max Gust Speed 25 mph    
Visibility 10 miles    
Events      
T = Trace of Precipitation, MM = Missing Value Source: NWS Daily Summary

Daily Weather History Graph

Daily Weather History Graph

Search for Another Location

Airport or City:

Trip Planner

Search our weather history database for the weather conditions in past years. The results will help you decide how hot, cold, wet, or windy it might be!

Date:

Astronomy

Jun. 22, 2013 Rise Set
Actual Time 5:22 AM MDT 9:17 PM MDT
Civil Twilight 4:42 AM MDT 9:57 PM MDT
Nautical Twilight 3:48 AM MDT 10:51 PM MDT
Astronomical Twilight 2:25 AM MDT 12:14 AM MDT
Moon 8:30 PM MDT (6/22) 4:43 AM MDT (6/22)
Length of Visible Light 17h 14m
Length of Day
15h 54m
Waxing Gibbous, 99% of the Moon is Illuminated
Jun 22
Waxing Gibbous
Jun 23
Full
Jun 29
Last Quarter
Jul 8
New
Jul 15
First Quarter

Hourly Weather History & Observations

Time (MDT) Temp. Windchill Dew Point Humidity Pressure Visibility Wind Dir Wind Speed Gust Speed Precip Events Conditions
12:54 AM 45.0 °F - 44.1 °F 97% 30.02 in 10.0 mi Calm Calm - N/A   Clear
1:54 AM 43.0 °F 40.3 °F 41.0 °F 93% 30.04 in 10.0 mi SSE 4.6 mph - N/A   Clear
2:54 AM 41.0 °F 39.0 °F 39.9 °F 96% 30.04 in 10.0 mi South 3.5 mph - N/A   Clear
3:54 AM 39.9 °F 35.1 °F 37.9 °F 93% 30.02 in 10.0 mi SSE 6.9 mph - N/A   Clear
4:54 AM 37.9 °F 34.4 °F 37.0 °F 97% 30.03 in 10.0 mi SE 4.6 mph - N/A   Clear
5:54 AM 39.0 °F 36.8 °F 37.0 °F 93% 30.05 in 10.0 mi ESE 3.5 mph - N/A   Clear
6:54 AM 43.0 °F 41.3 °F 41.0 °F 93% 30.04 in 10.0 mi SSW 3.5 mph - N/A   Overcast
7:54 AM 50.0 °F - 45.0 °F 83% 30.00 in 10.0 mi Calm Calm - N/A   Mostly Cloudy
8:54 AM 53.1 °F - 45.0 °F 74% 30.00 in 10.0 mi Calm Calm - N/A   Clear
9:54 AM 54.0 °F - 46.0 °F 75% 30.00 in 10.0 mi West 5.8 mph - N/A   Overcast
10:54 AM 57.0 °F - 46.9 °F 69% 29.99 in 10.0 mi SW 3.5 mph - N/A   Partly Cloudy
11:54 AM 59.0 °F - 48.0 °F 67% 29.99 in 10.0 mi NNW 6.9 mph - N/A   Partly Cloudy
12:54 PM 55.0 °F - 48.0 °F 77% 29.99 in 10.0 mi WNW 16.1 mph 23.0 mph N/A   Mostly Cloudy
1:54 PM 53.1 °F - 48.9 °F 86% 30.04 in 10.0 mi West 13.8 mph 25.3 mph 0.03 in   Overcast
2:54 PM 55.0 °F - 45.0 °F 69% 30.00 in 10.0 mi SSW 4.6 mph - 0.00 in   Overcast
3:54 PM 57.0 °F - 45.0 °F 64% 29.96 in 10.0 mi Calm Calm - N/A   Clear
4:54 PM 55.9 °F - 46.0 °F 69% 29.96 in 10.0 mi NW 5.8 mph - N/A   Clear
5:54 PM 57.9 °F - 44.1 °F 60% 29.96 in 10.0 mi Calm Calm - N/A   Clear
6:54 PM 57.9 °F - 44.1 °F 60% 29.94 in 10.0 mi Calm Calm - N/A   Clear
7:54 PM 55.9 °F - 45.0 °F 67% 29.95 in 10.0 mi SSW 4.6 mph - N/A   Overcast
8:54 PM 53.1 °F - 46.9 °F 80% 29.96 in 10.0 mi WSW 5.8 mph - N/A   Unknown
9:54 PM 48.9 °F - 45.0 °F 86% 29.97 in 10.0 mi SW 9.2 mph - N/A   Clear
10:54 PM 46.0 °F 42.5 °F 43.0 °F 89% 29.97 in 10.0 mi SSW 6.9 mph - N/A   Clear
11:54 PM 45.0 °F 43.5 °F 42.1 °F 90% 29.95 in 10.0 mi SE 3.5 mph - N/A   Clear